Theta_e
309 308 315 321 323 321 322 323 324 326 326 324 323 326 327 328 329 328 321 323 326 325 326 327 327 326 326 325 325 326 329 330 331 333 335 335 333 333 332 332 332 331 330 329 328 329 333 333 331
310 309 318 322 321 323 323 323 323 324 326 325 324 324 326 327 325 322 321 324 325 324 323 323 321 320 319 319 318 317 316 316 320 325 329 332 335 333 332 332 332 331 330 329 329 329 330 331 333
309 314 320 321 322 322 323 324 323 324 325 326 326 325 327 327 322 322 320 321 323 322 321 321 320 319 318 315 312 310 310 310 310 311 313 321 327 333 334 332 332 332 330 328 328 328 327 327 327
316 316 317 319 322 322 322 322 323 323 321 325 324 325 322 322 321 320 320 321 320 320 320 320 318 315 310 309 309 309 309 309 309 309 309 309 311 322 330 333 332 331 331 330 326 327 327 325 323
316 318 320 322 322 322 322 320 322 323 323 322 322 324 323 320 320 320 320 320 319 319 318 315 311 309 308 308 306 305 304 304 304 303 304 307 309 309 315 329 330 331 331 331 328 327 328 327 324
318 319 320 322 323 322 321 320 320 321 322 321 320 322 321 319 317 318 318 318 318 316 314 310 309 308 307 305 304 304 304 304 304 303 303 303 303 305 309 311 326 329 330 331 331 328 328 326 324
320 321 321 323 322 322 321 319 320 320 321 321 319 321 320 317 315 315 316 315 314 313 311 309 308 307 305 304 304 304 304 303 303 302 302 302 302 302 303 307 310 322 329 330 331 329 328 327 326
318 320 321 322 322 322 320 318 318 319 320 318 318 320 320 318 315 314 314 313 313 311 310 308 307 305 305 304 304 304 303 303 302 301 301 301 302 303 303 303 306 309 319 329 329 329 328 328 326
316 319 322 322 321 321 318 319 318 317 317 317 317 317 317 316 313 313 312 312 312 311 309 307 306 305 305 304 303 303 303 303 302 301 302 303 305 308 308 306 304 307 309 322 328 328 328 327 326
318 320 321 319 318 318 318 317 318 317 318 318 317 316 314 313 313 313 314 314 313 312 309 307 306 305 305 304 303 302 302 302 301 303 306 309 309 309 309 309 307 306 308 312 324 327 328 327 326
317 319 318 317 316 316 317 317 317 317 318 318 318 318 316 314 313 314 314 314 314 311 309 307 306 306 306 304 302 302 303 302 305 308 309 310 309 309 310 310 310 309 308 309 317 326 327 327 325
315 315 315 315 316 316 317 317 317 317 317 317 317 317 317 314 314 314 314 314 312 310 309 307 307 306 306 303 302 303 304 307 309 309 309 309 309 311 310 311 311 311 314 312 319 326 326 325 324
315 316 315 315 315 315 315 316 316 316 316 316 316 314 314 314 314 313 313 313 311 310 309 307 307 307 305 301 302 306 309 309 309 309 309 309 310 310 308 308 310 311 312 318 321 326 325 324 321
317 316 316 316 316 316 315 316 314 316 315 315 315 314 314 314 314 314 313 312 310 309 308 308 307 306 302 301 308 310 309 309 309 310 312 311 310 309 308 307 307 311 312 319 323 325 323 321 318
316 317 319 318 316 316 314 317 316 317 316 314 314 314 314 314 314 313 313 311 311 309 309 308 307 304 301 305 310 310 309 309 310 311 310 310 310 310 308 307 306 310 312 318 322 323 322 318 318
317 317 322 318 316 316 315 323 322 317 315 315 315 315 314 314 313 313 312 311 310 309 309 309 307 302 302 310 311 311 310 311 311 311 309 309 308 309 308 306 307 310 314 318 321 322 319 317 314
318 323 324 322 316 317 316 322 322 316 314 315 316 315 314 314 313 312 312 310 309 310 309 308 304 302 308 311 312 312 311 311 311 311 310 310 308 307 307 306 309 311 316 319 321 319 317 314 311
329 324 324 322 319 316 318 319 319 319 318 318 317 317 315 314 314 312 311 310 310 310 309 307 302 305 311 312 312 312 311 311 311 311 310 308 306 307 306 307 309 311 317 320 318 319 314 311 310
319 321 322 322 317 314 318 319 320 320 319 319 318 317 316 314 314 313 311 310 310 309 308 303 302 309 311 312 312 312 311 311 310 310 309 307 306 306 306 309 309 315 318 319 319 317 314 311 308
317 319 322 321 315 313 318 318 319 319 317 316 316 315 314 315 313 312 309 310 310 309 306 302 305 311 311 313 312 311 311 310 311 311 308 306 306 306 307 308 314 316 319 319 318 317 316 314 309
317 320 323 320 317 317 315 324 326 318 314 314 313 313 312 313 313 311 308 309 309 308 303 302 306 311 311 313 312 311 312 312 311 311 308 307 306 308 308 311 315 318 318 319 318 317 316 311 311
319 318 317 316 317 323 315 333 324 323 319 315 313 313 313 311 312 310 308 308 309 306 302 302 306 311 312 313 313 312 313 314 312 311 310 308 308 308 309 315 319 319 319 318 318 316 315 311 312
318 313 314 314 317 317 319 323 330 322 320 316 315 314 312 311 311 309 308 308 308 304 302 302 308 311 313 314 313 312 313 315 315 313 312 310 309 311 314 316 319 318 318 317 317 316 315 311 311
313 313 314 314 316 325 324 322 333 332 320 315 314 312 311 310 310 308 307 308 306 302 302 303 309 311 313 314 314 313 313 315 315 315 314 314 313 315 316 315 318 319 318 318 317 317 315 311 311
313 315 328 331 324 325 313 316 324 321 314 313 314 312 311 310 309 307 308 307 304 302 302 306 310 311 313 313 314 313 313 315 315 315 314 317 317 316 318 318 317 319 317 317 318 318 315 312 316
313 316 321 328 326 321 312 318 323 315 314 310 313 312 310 310 308 307 307 306 302 302 301 307 310 311 312 313 314 313 314 313 317 317 315 317 319 318 318 319 317 318 319 318 319 318 316 313 315
313 313 313 315 311 317 317 318 318 312 312 311 311 313 311 310 308 307 306 305 302 302 302 307 309 311 312 312 314 314 314 314 315 316 316 319 316 317 319 320 319 319 317 317 317 318 315 314 315
311 311 313 314 326 324 321 319 321 315 313 312 312 311 312 311 309 307 306 306 302 302 302 306 309 311 311 312 313 314 314 314 314 316 317 318 317 319 318 319 318 317 318 318 317 317 316 316 314
309 311 311 314 317 321 323 322 316 316 313 313 313 313 312 312 310 307 306 306 303 302 302 306 308 311 311 311 312 313 314 314 314 315 315 317 318 318 318 318 317 317 317 318 318 317 317 316 315
311 311 312 316 318 314 314 320 312 311 310 310 311 313 312 312 311 308 307 306 304 302 302 304 307 310 311 312 312 313 314 314 313 315 316 316 316 318 317 318 318 317 318 318 318 318 318 317 317
Wind_Speed
6 5 4 4 6 6 9 2 2 4 4 2 1 2 2 6 5 4 6 7 9 8 8 11 10 10 11 12 13 14 16 17 18 20 19 18 17 17 18 19 20 18 17 17 17 16 14 14 17
5 5 3 6 7 8 5 4 7 6 4 4 3 2 5 2 3 4 6 8 10 10 10 11 10 11 13 15 17 19 20 21 22 22 22 23 21 21 20 21 21 21 20 18 18 17 17 16 15
7 8 8 4 8 9 6 3 2 6 5 5 4 2 1 1 3 5 11 10 10 10 10 11 12 14 16 19 21 22 23 24 26 26 25 25 25 24 24 23 23 23 22 21 21 21 20 20 18
2 5 7 7 12 8 6 2 1 7 5 7 5 5 2 5 6 7 10 10 10 11 11 13 14 16 17 18 18 18 19 20 21 23 25 27 28 28 30 27 25 25 25 24 24 24 24 24 21
5 7 8 8 11 9 5 4 4 8 5 7 8 4 3 6 11 10 9 10 10 11 13 15 15 15 15 15 16 17 19 20 22 23 24 23 26 29 30 31 31 27 27 27 27 26 25 23 20
8 6 7 10 10 3 6 6 7 10 10 5 6 12 6 6 10 11 11 10 12 13 13 15 15 14 15 17 18 19 21 23 24 25 25 26 27 26 29 32 34 32 29 29 29 29 27 26 22
11 7 11 12 10 9 7 2 10 10 12 13 5 6 2 8 10 12 11 12 12 13 13 14 14 15 17 18 19 21 24 26 27 28 29 29 28 29 29 28 33 34 32 30 30 30 29 28 23
6 3 8 6 7 8 3 4 3 10 10 4 5 5 9 9 12 11 11 12 12 13 14 14 14 16 18 20 23 23 25 27 29 30 30 30 30 30 29 28 29 32 34 33 31 30 31 28 27
2 6 8 10 5 1 3 5 4 3 11 5 9 10 3 8 11 12 12 12 12 13 14 14 15 17 20 23 25 27 30 32 33 30 29 26 25 25 24 25 28 31 34 33 34 29 32 31 29
6 5 8 6 4 5 3 7 8 6 11 16 16 15 13 11 13 13 13 11 13 12 12 12 15 18 21 24 25 29 30 29 30 27 21 20 20 19 20 22 25 26 30 33 29 33 32 37 34
4 6 6 4 6 6 8 10 13 11 13 17 19 16 17 14 15 15 14 13 12 12 11 12 17 19 22 25 27 28 28 29 25 19 16 18 18 16 14 14 15 18 21 29 28 28 29 36 40
5 11 11 4 3 4 6 10 11 16 25 12 6 10 13 17 17 16 15 14 13 11 9 15 17 19 23 26 27 26 26 24 18 13 14 15 13 12 12 12 11 11 10 18 20 23 29 28 31
9 11 7 10 9 9 13 18 16 24 23 19 16 12 14 17 17 16 15 14 13 12 10 12 17 21 24 26 27 29 23 15 14 14 13 14 12 12 13 14 10 8 14 13 17 22 30 38 35
5 9 13 9 10 10 10 16 3 9 4 14 23 18 17 17 18 16 16 14 13 12 12 15 17 21 24 27 29 23 17 14 15 15 14 17 18 16 13 13 11 8 9 14 18 25 36 35 31
6 10 11 11 9 5 5 13 16 18 13 10 13 19 19 19 18 19 16 14 12 12 13 15 18 22 24 27 23 20 16 16 18 18 16 16 17 16 13 13 11 7 10 16 26 31 35 25 20
5 4 6 7 6 3 3 11 2 7 9 13 14 15 18 20 20 18 16 14 13 13 13 15 18 21 25 22 20 18 16 16 16 14 15 15 15 14 10 11 9 7 18 19 33 38 32 29 28
7 9 10 4 6 2 8 11 5 5 10 15 15 16 18 18 20 19 17 16 14 12 13 15 18 21 22 20 19 18 15 15 14 15 14 12 14 11 9 9 8 10 23 25 36 34 37 36 33
7 10 9 9 4 7 11 23 22 27 27 29 25 22 20 20 21 19 16 15 14 11 12 13 17 20 18 19 20 13 11 12 12 15 12 11 11 7 5 4 9 17 20 34 34 36 37 37 39
9 11 14 11 3 5 13 19 22 24 27 27 26 23 23 22 17 17 16 16 13 11 10 12 16 17 15 18 16 15 14 14 11 12 11 10 4 2 5 5 14 17 13 39 34 41 42 41 38
11 12 12 10 1 4 14 22 24 18 10 11 14 14 17 19 19 16 16 15 11 10 8 10 14 14 12 13 14 16 14 13 15 10 9 8 2 3 5 9 16 17 31 29 45 44 40 36 38
12 11 4 7 7 12 12 12 6 5 6 7 7 6 7 15 21 18 16 14 11 9 7 9 12 12 10 10 11 11 15 16 12 11 8 7 6 5 7 14 15 28 39 32 35 33 35 44 36
13 3 7 6 6 5 2 7 5 9 8 7 8 9 8 11 19 18 16 14 11 8 6 8 10 9 7 8 9 9 12 13 14 10 7 9 9 12 12 15 24 39 29 34 37 42 37 40 41
1 2 3 3 6 8 6 4 6 4 5 4 5 6 6 11 18 18 16 14 12 7 5 7 7 6 6 5 7 6 8 9 12 9 10 11 16 14 16 14 28 28 31 30 40 39 36 44 43
8 3 3 3 4 5 4 5 4 3 1 3 5 7 9 13 16 16 15 15 11 7 5 6 4 4 4 3 3 5 6 9 9 9 14 15 19 13 10 12 22 23 28 31 30 31 39 44 41
6 5 2 3 4 5 2 5 11 5 3 3 8 11 13 15 16 17 17 15 11 7 6 5 3 2 2 2 0 4 4 7 8 9 16 21 14 12 13 16 19 17 21 25 22 29 37 39 43
11 5 5 5 3 2 2 6 5 2 1 5 9 13 15 16 15 16 16 14 11 8 6 6 3 4 4 2 1 3 5 5 9 8 10 17 16 14 15 13 21 22 17 13 15 30 39 39 40
8 8 2 4 2 3 7 9 10 8 6 9 11 15 16 17 17 16 17 15 12 10 7 7 5 4 7 5 4 5 5 4 7 10 10 12 10 11 16 17 21 22 15 10 9 22 36 35 31
4 4 3 4 4 6 6 5 10 4 9 11 13 16 18 17 17 17 17 17 14 12 9 8 7 5 9 9 8 7 7 5 8 11 13 11 12 11 12 18 21 18 10 11 16 21 30 31 32
6 7 6 3 4 4 4 5 1 2 2 11 11 17 18 20 20 19 19 18 16 14 12 10 9 6 7 10 11 10 10 10 10 10 13 14 14 13 14 18 17 14 11 9 10 21 24 25 29
14 14 17 6 6 5 2 7 3 2 2 1 6 14 16 17 18 19 20 19 19 17 15 12 12 10 7 10 14 13 13 11 13 12 14 15 15 16 14 17 18 17 16 15 15 19 19 21 25
Wind_Direction
228 219 215 251 242 232 256 232 286 202 206 164 94 227 305 352 327 314 160 181 189 196 219 243 246 258 267 272 274 277 278 277 273 268 267 264 257 255 261 254 251 248 243 238 231 226 229 218 219
190 184 210 264 254 240 262 167 202 215 105 178 171 213 246 249 92 135 153 196 196 206 218 241 250 265 275 281 284 282 278 276 274 273 271 265 258 256 253 252 248 246 242 236 230 224 218 213 208
176 173 248 232 250 255 300 62 269 101 168 195 192 243 343 126 164 167 206 209 209 224 237 252 263 273 280 285 285 285 283 281 277 274 273 270 266 257 256 254 249 245 242 237 228 224 220 213 215
139 206 244 247 251 253 280 48 281 163 198 221 238 241 178 191 164 176 224 209 220 237 249 264 273 282 288 288 287 289 291 290 287 282 275 269 264 260 255 252 252 247 242 237 229 224 221 219 218
190 248 250 244 262 274 284 282 228 224 211 213 208 225 240 233 213 216 221 219 227 248 261 274 281 284 286 288 292 294 296 295 292 287 283 279 269 263 258 253 251 249 243 239 231 225 220 218 218
227 268 247 255 261 218 271 254 231 239 227 188 224 256 253 216 217 220 221 227 241 256 268 280 284 286 290 295 297 301 301 299 296 294 292 286 279 271 262 251 250 246 241 238 235 226 221 218 218
255 248 261 279 279 276 261 237 226 240 234 223 240 251 217 214 205 216 220 229 244 254 271 279 282 289 292 296 302 306 306 305 302 297 292 288 282 276 270 263 252 247 241 237 236 229 221 215 212
260 274 261 246 268 270 109 210 283 253 256 181 186 243 249 215 203 215 220 235 247 258 271 274 283 292 299 305 308 306 305 302 301 299 295 290 284 277 271 263 258 249 244 236 234 231 222 214 207
235 248 256 254 268 353 141 231 202 255 252 229 224 248 250 165 212 216 225 236 244 255 268 273 285 298 305 309 308 311 311 310 307 305 302 294 288 285 277 266 252 247 241 238 228 230 225 213 202
233 251 267 8 329 288 258 261 275 255 238 242 244 241 241 220 224 220 221 233 242 247 259 278 290 297 304 308 310 313 312 312 310 306 299 291 288 286 278 268 264 249 244 237 233 224 222 207 195
201 246 359 292 292 283 283 270 252 260 259 253 250 246 228 221 221 222 228 234 243 248 248 278 288 298 307 311 314 315 311 312 307 305 303 300 296 291 290 284 271 260 246 234 232 224 221 194 186
250 245 271 298 296 279 273 288 257 249 256 281 278 257 226 222 222 225 229 235 242 248 259 276 290 305 312 313 317 313 311 306 304 301 300 298 298 294 288 277 270 260 244 227 224 218 214 192 164
243 263 278 270 273 278 274 263 272 269 262 260 251 245 233 227 228 227 228 233 236 247 263 281 298 311 314 318 319 314 310 303 296 295 294 295 291 287 299 294 266 245 243 206 209 210 187 188 170
352 292 278 275 272 264 267 276 288 266 265 250 238 238 235 229 226 225 225 229 240 250 269 283 303 312 318 323 323 319 314 305 303 295 287 282 288 291 305 287 279 256 229 190 184 196 168 156 150
293 294 281 244 251 259 292 266 232 256 247 252 232 234 233 229 223 222 226 226 230 251 272 291 305 316 323 327 324 323 318 311 311 304 313 300 298 284 284 292 271 236 194 185 175 181 166 179 192
254 248 271 118 180 179 234 276 296 193 225 244 238 232 227 222 219 218 216 216 231 255 278 295 310 322 326 328 325 328 321 316 312 310 312 308 304 292 274 284 249 212 175 175 173 169 152 139 154
209 269 230 244 209 223 221 286 305 217 236 247 246 233 228 220 216 213 211 221 234 258 280 299 316 326 331 329 329 327 324 319 331 323 319 305 311 293 263 270 192 198 170 168 174 161 151 147 152
254 240 250 261 150 226 253 265 274 271 258 256 257 253 230 223 215 207 207 220 235 259 280 305 323 329 333 330 337 339 334 338 345 329 316 320 308 270 215 220 184 184 180 160 176 159 149 146 152
291 277 275 280 120 286 266 278 283 280 271 261 255 250 239 222 218 204 200 219 233 255 280 314 328 333 333 338 352 2 360 1 356 348 334 339 311 207 168 180 177 167 145 164 177 159 157 158 160
249 265 273 281 181 267 296 292 285 287 275 268 251 243 237 219 205 196 197 211 224 248 284 318 335 337 333 346 356 10 19 23 2 359 357 7 55 154 141 167 152 164 144 163 162 162 158 162 167
230 247 263 279 309 254 295 279 264 211 229 228 222 208 210 212 199 196 192 203 217 241 282 319 333 340 338 351 7 39 43 34 35 35 2 40 75 109 140 142 120 148 172 163 169 167 168 165 174
255 232 244 279 306 297 20 289 298 268 264 218 222 209 205 196 194 192 187 196 208 236 279 316 329 342 344 360 12 48 36 22 35 32 38 80 100 101 128 129 132 151 157 164 173 168 173 169 170
193 124 215 250 271 313 190 255 263 255 268 188 182 181 181 182 182 182 184 194 209 231 278 311 323 343 338 351 12 68 46 36 22 60 92 98 107 120 132 125 142 154 160 170 173 177 176 177 174
127 160 210 248 263 248 180 231 277 237 192 140 142 152 159 160 166 171 182 195 208 228 270 302 316 338 324 325 5 75 70 53 71 82 104 104 111 111 120 151 152 153 171 181 180 189 185 181 183
193 199 240 234 213 255 139 226 259 256 219 188 164 158 160 161 164 174 187 193 206 226 263 288 305 305 277 330 120 102 111 86 96 92 122 124 127 134 115 136 176 161 168 182 195 196 188 185 188
193 230 235 257 242 13 139 234 252 44 124 146 157 160 162 170 177 186 192 198 206 223 253 269 267 251 223 257 189 157 125 128 112 106 135 139 129 129 142 148 150 167 174 172 204 199 188 190 195
159 213 359 296 112 273 239 249 267 173 185 187 166 170 178 182 186 191 197 204 211 222 240 251 255 255 212 228 219 213 148 151 144 134 141 155 151 158 153 163 161 165 162 178 175 198 189 195 202
235 132 159 223 230 248 233 248 251 204 219 199 195 192 190 189 191 195 203 208 213 221 233 241 250 253 214 223 226 217 182 155 158 154 156 164 166 163 166 167 170 173 184 189 189 190 195 204 202
175 206 223 270 238 254 279 241 57 298 162 198 203 201 193 192 194 198 205 210 215 222 230 233 235 238 224 216 217 220 205 175 169 176 177 170 176 176 176 175 184 196 206 205 199 201 202 202 206
242 213 204 215 196 238 347 257 141 137 140 220 242 193 197 195 195 200 207 211 215 221 227 231 228 226 240 216 210 216 211 195 186 192 192 191 191 182 179 196 205 210 210 209 196 204 206 208 210